Weather History for KFXY - February, 2014

Change the Weather History Date:

Tuesday, February 25, 2014

  Actual Average Record
Temperature  
Mean Temperature 2 °F -  
Max Temperature 8 °F 33 °F 32 °F (2013)
Min Temperature -4 °F 12 °F -4 °F (2014)
Degree Days  
Heating Degree Days 63    
Moisture  
Dew Point -5 °F    
Average Humidity 70    
Maximum Humidity 85    
Minimum Humidity 56    
Precipitation  
Precipitation 0.00 in - - ()
Sea Level Pressure  
Sea Level Pressure 30.31 in    
Wind  
Wind Speed 12 mph (NW)    
Max Wind Speed 20 mph    
Max Gust Speed 26 mph    
Visibility 9 miles    
Events Snow    
Averages and records for this station are not official NWS values.
T = Trace of Precipitation, MM = Missing Value Source: NWS Daily Summary

Daily Weather History Graph

Daily Weather History Graph

Search for Another Location

Airport or City:

Trip Planner

Search our weather history database for the weather conditions in past years. The results will help you decide how hot, cold, wet, or windy it might be!

Date:

Astronomy

Feb. 25, 2014 Rise Set
Actual Time 6:57 AM CST 5:58 PM CST
Civil Twilight 6:28 AM CST 6:27 PM CST
Nautical Twilight 5:55 AM CST 7:00 PM CST
Astronomical Twilight 5:22 AM CST 7:33 PM CST
Moon 3:57 AM CST (2/25) 2:00 PM CST (2/25)
Length of Visible Light 11h 58m
Length of Day
11h 01m
Waning Crescent, 18% of the Moon is Illuminated
Feb 25
Waning Crescent
Mar 1
New
Mar 8
First Quarter
Mar 16
Full
Mar 23
Last Quarter

Hourly Weather History & Observations

Time (CST) Temp. Windchill Dew Point Humidity Pressure Visibility Wind Dir Wind Speed Gust Speed Precip Events Conditions
12:15 AM 8.6 °F -2.6 °F 3.2 °F 79% 30.30 in 10.0 mi NW 6.9 mph - N/A   Overcast
12:35 AM 8.6 °F -4.7 °F 3.2 °F 79% 30.30 in 5.0 mi NW 9.2 mph - N/A Snow Light Snow
12:55 AM 8.6 °F -5.5 °F 1.4 °F 73% 30.30 in 5.0 mi NW 10.4 mph - N/A Snow Light Snow
1:15 AM 5.0 °F -12.3 °F 1.4 °F 85% 30.30 in 10.0 mi NNW 13.8 mph 23.0 mph N/A   Scattered Clouds
1:30 AM 5.0 °F -10.8 °F -0.4 °F 78% 30.31 in 7.0 mi NNW 11.5 mph - N/A   Scattered Clouds
1:55 AM 5.0 °F -6.9 °F -0.4 °F 78% 30.32 in 4.0 mi NW 6.9 mph - N/A Snow Light Snow
2:10 AM 3.2 °F -15.9 °F -2.2 °F 78% 30.31 in 5.0 mi NNW 16.1 mph 21.9 mph N/A   Haze
3:41 AM 1.4 °F -13.5 °F -5.8 °F 72% 30.31 in 10.0 mi NW 9.2 mph - N/A   Clear
3:55 AM 1.4 °F -15.3 °F -4.0 °F 78% 30.30 in 10.0 mi NNW 11.5 mph - N/A   Clear
4:15 AM 1.4 °F -18.2 °F -5.8 °F 72% 30.30 in 7.0 mi NNW 16.1 mph - N/A   Clear
4:35 AM 1.4 °F -16.1 °F -5.8 °F 72% 30.31 in 10.0 mi NW 12.7 mph 20.7 mph N/A   Clear
4:55 AM 1.4 °F -14.5 °F -5.8 °F 72% 30.31 in 10.0 mi NNW 10.4 mph - N/A   Clear
5:15 AM -0.4 °F -19.9 °F -5.8 °F 78% 30.30 in 10.0 mi NNW 15.0 mph - N/A   Clear
5:35 AM -0.4 °F -18.4 °F -7.6 °F 72% 30.30 in 10.0 mi NNW 12.7 mph 20.7 mph N/A   Clear
5:55 AM -0.4 °F -15.7 °F -5.8 °F 78% 30.31 in 10.0 mi NW 9.2 mph - N/A   Clear
6:15 AM -0.4 °F -15.7 °F -5.8 °F 78% 30.31 in 10.0 mi NW 9.2 mph - N/A   Clear
6:35 AM -0.4 °F -13.4 °F -7.6 °F 72% 30.31 in 10.0 mi NW 6.9 mph - N/A   Clear
6:55 AM -2.2 °F -15.6 °F -7.6 °F 78% 30.31 in 10.0 mi NW 6.9 mph - N/A   Clear
7:15 AM -2.2 °F -18.0 °F -7.6 °F 78% 30.31 in 10.0 mi WNW 9.2 mph - N/A   Clear
7:35 AM -4.0 °F -16.3 °F -9.4 °F 78% 30.32 in 10.0 mi WNW 5.8 mph - N/A   Clear
7:55 AM -4.0 °F -17.8 °F -9.4 °F 78% 30.32 in 10.0 mi WNW 6.9 mph - N/A   Clear
8:10 AM -2.2 °F -16.8 °F -9.4 °F 71% 30.32 in 10.0 mi WNW 8.1 mph - N/A   Clear
8:35 AM -2.2 °F -15.6 °F -9.4 °F 71% 30.33 in 10.0 mi West 6.9 mph - N/A   Clear
8:55 AM -0.4 °F -16.7 °F -7.6 °F 72% 30.32 in 10.0 mi West 10.4 mph - N/A   Clear
9:15 AM -0.4 °F -16.7 °F -7.6 °F 72% 30.32 in 10.0 mi WNW 10.4 mph - N/A   Clear
9:35 AM 1.4 °F -12.5 °F -7.6 °F 66% 30.32 in 10.0 mi West 8.1 mph - N/A   Clear
9:55 AM 1.4 °F -17.6 °F -7.6 °F 66% 30.32 in 10.0 mi WNW 15.0 mph - N/A   Clear
10:15 AM 1.4 °F -16.9 °F -7.6 °F 66% 30.33 in 10.0 mi WNW 13.8 mph - N/A   Clear
10:35 AM 1.4 °F -16.1 °F -7.6 °F 66% 30.32 in 10.0 mi WNW 12.7 mph - N/A   Clear
11:15 AM 3.2 °F -15.9 °F -7.6 °F 61% 30.33 in 10.0 mi WNW 16.1 mph - N/A   Clear
11:35 AM 3.2 °F -15.3 °F -7.6 °F 61% 30.33 in 10.0 mi WNW 15.0 mph - N/A   Clear
11:55 AM 5.0 °F -13.6 °F -5.8 °F 61% 30.32 in 10.0 mi WNW 16.1 mph 19.6 mph N/A   Clear
12:15 PM 5.0 °F -12.3 °F -7.6 °F 56% 30.32 in 10.0 mi WNW 13.8 mph 18.4 mph N/A   Clear
12:35 PM 5.0 °F -11.6 °F -5.8 °F 61% 30.31 in 10.0 mi WNW 12.7 mph - N/A   Clear
12:55 PM 5.0 °F -11.6 °F -5.8 °F 61% 30.29 in 10.0 mi West 12.7 mph - N/A   Clear
1:15 PM 5.0 °F -11.6 °F -4.0 °F 66% 30.28 in 10.0 mi West 12.7 mph - N/A   Clear
1:35 PM 6.8 °F -10.7 °F -4.0 °F 61% 30.28 in 10.0 mi West 15.0 mph - N/A   Clear
1:55 PM 8.6 °F -8.3 °F -4.0 °F 57% 30.27 in 10.0 mi WNW 15.0 mph - N/A   Clear
2:15 PM 8.6 °F -8.3 °F -2.2 °F 62% 30.26 in 10.0 mi WNW 15.0 mph - N/A   Clear
2:35 PM 8.6 °F -7.0 °F -0.4 °F 67% 30.26 in 7.0 mi WNW 12.7 mph - N/A   Clear
2:55 PM 8.6 °F -10.5 °F -2.2 °F 62% 30.26 in 7.0 mi WNW 19.6 mph - N/A   Clear
3:15 PM 8.6 °F -10.0 °F -0.4 °F 67% 30.26 in 7.0 mi WNW 18.4 mph 25.3 mph N/A   Scattered Clouds
3:35 PM 8.6 °F -10.5 °F -2.2 °F 62% 30.26 in 7.0 mi WNW 19.6 mph 24.2 mph N/A   Scattered Clouds
3:55 PM 8.6 °F -8.9 °F -0.4 °F 67% 30.26 in 10.0 mi WNW 16.1 mph 20.7 mph N/A   Clear
4:15 PM 8.6 °F -8.9 °F -0.4 °F 67% 30.25 in 7.0 mi NW 16.1 mph - N/A   Clear
4:35 PM 8.6 °F -8.9 °F -0.4 °F 67% 30.25 in 10.0 mi WNW 16.1 mph - N/A   Clear
4:55 PM 8.6 °F -10.5 °F 1.4 °F 73% 30.25 in 3.0 mi NW 19.6 mph 25.3 mph N/A Snow Light Snow
5:15 PM 6.8 °F -11.3 °F -0.4 °F 72% 30.26 in 3.0 mi NW 16.1 mph 24.2 mph N/A   Haze
5:35 PM 5.0 °F -13.6 °F -4.0 °F 66% 30.26 in 7.0 mi NW 16.1 mph 21.9 mph N/A   Clear
5:55 PM 5.0 °F -14.2 °F -4.0 °F 66% 30.27 in 5.0 mi NW 17.3 mph 25.3 mph N/A   Haze
6:15 PM 3.2 °F -15.9 °F -4.0 °F 72% 30.28 in 5.0 mi NW 16.1 mph 25.3 mph N/A   Haze
6:35 PM 3.2 °F -16.5 °F -4.0 °F 72% 30.29 in 7.0 mi NW 17.3 mph 26.5 mph N/A   Scattered Clouds
6:55 PM 3.2 °F -16.5 °F -4.0 °F 72% 30.30 in 7.0 mi NW 17.3 mph 24.2 mph N/A   Mostly Cloudy
7:15 PM 1.4 °F -18.8 °F -5.8 °F 72% 30.31 in 10.0 mi NW 17.3 mph 21.9 mph N/A   Scattered Clouds
7:35 PM 1.4 °F -18.2 °F -5.8 °F 72% 30.31 in 10.0 mi NW 16.1 mph 20.7 mph N/A   Clear
7:55 PM 1.4 °F -16.9 °F -7.6 °F 66% 30.32 in 10.0 mi NW 13.8 mph - N/A   Clear
8:15 PM 1.4 °F -16.9 °F -7.6 °F 66% 30.33 in 10.0 mi NW 13.8 mph - N/A   Clear
8:35 PM 1.4 °F -16.9 °F -7.6 °F 66% 30.34 in 10.0 mi NW 13.8 mph 23.0 mph N/A   Clear
8:55 PM -0.4 °F -21.7 °F -7.6 °F 72% 30.34 in 7.0 mi NW 18.4 mph 24.2 mph N/A   Clear
9:15 PM -0.4 °F -20.5 °F -7.6 °F 72% 30.35 in 10.0 mi NW 16.1 mph 24.2 mph N/A   Clear
9:35 PM -0.4 °F -22.3 °F -7.6 °F 72% 30.35 in 10.0 mi NW 19.6 mph 25.3 mph N/A   Clear
9:55 PM -0.4 °F -21.7 °F -9.4 °F 66% 30.35 in 7.0 mi NW 18.4 mph 25.3 mph N/A   Clear
10:15 PM -0.4 °F -22.3 °F -9.4 °F 66% 30.36 in 7.0 mi NW 19.6 mph 25.3 mph N/A   Clear
10:35 PM -0.4 °F -21.7 °F -9.4 °F 66% 30.36 in 10.0 mi NW 18.4 mph 25.3 mph N/A   Clear
10:55 PM -0.4 °F -19.9 °F -9.4 °F 66% 30.36 in 10.0 mi NW 15.0 mph 21.9 mph N/A   Clear
11:15 PM -0.4 °F -19.2 °F -9.4 °F 66% 30.35 in 10.0 mi NW 13.8 mph 19.6 mph N/A   Clear
11:35 PM -2.2 °F -20.7 °F -9.4 °F 71% 30.35 in 10.0 mi NW 12.7 mph 21.9 mph N/A   Clear
11:55 PM -2.2 °F -19.9 °F -9.4 °F 71% 30.35 in 10.0 mi NW 11.5 mph - N/A   Clear